| time (UTC) | temp F | wind direction | speed MPH | gust MPH | rain 1hr in | rain 24hr in | rain mn in | humidity % | barometer mb |
| 20260505230003 | 48 | 325 | 0.0 | 5.0 | 0.00 | 0.26 | 0.26 | 91 | 1010.2 |
| 20260505225403 | 48 | 325 | 0.0 | 5.0 | 0.00 | 0.26 | 0.26 | 91 | 1009.9 |
| 20260505224503 | 48 | 323 | 1.0 | 6.0 | 0.00 | 0.26 | 0.26 | 91 | 1009.5 |
| 20260505223603 | 48 | 325 | 1.0 | 4.0 | 0.00 | 0.26 | 0.26 | 91 | 1009.4 |
| 20260505222703 | 48 | 325 | 0.0 | 1.0 | 0.00 | 0.26 | 0.26 | 92 | 1009.3 |
| 20260505221803 | 48 | 320 | 0.0 | 3.0 | 0.00 | 0.26 | 0.26 | 92 | 1009.5 |
| 20260505220903 | 48 | 324 | 1.0 | 3.0 | 0.01 | 0.26 | 0.26 | 92 | 1009.7 |
| 20260505220003 | 48 | 323 | 0.0 | 3.0 | 0.01 | 0.26 | 0.26 | 92 | 1009.5 |
| 20260505215424 | 48 | 326 | 1.0 | 4.0 | 0.01 | 0.26 | 0.26 | 92 | 1009.5 |
| 20260505214503 | 48 | 325 | 1.0 | 6.0 | 0.01 | 0.26 | 0.26 | 92 | 1009.7 |
| 20260505213603 | 48 | 324 | 0.0 | 3.0 | 0.01 | 0.26 | 0.26 | 92 | 1010.0 |
| 20260505212703 | 48 | 325 | 0.0 | 3.0 | 0.01 | 0.26 | 0.26 | 92 | 1009.7 |
| 20260505211803 | 48 | 327 | 0.0 | 1.0 | 0.01 | 0.26 | 0.26 | 92 | 1009.5 |
| 20260505210903 | 48 | 324 | 0.0 | 2.0 | 0.02 | 0.25 | 0.25 | 92 | 1010.0 |
| 20260505210003 | 48 | 326 | 1.0 | 3.0 | 0.04 | 0.25 | 0.25 | 92 | 1010.3 |
| 20260505205403 | 48 | 326 | 1.0 | 6.0 | 0.04 | 0.25 | 0.25 | 92 | 1010.2 |
| 20260505204503 | 48 | 326 | 1.0 | 5.0 | 0.04 | 0.25 | 0.25 | 91 | 1010.3 |
| 20260505203624 | 48 | 325 | 1.0 | 5.0 | 0.04 | 0.25 | 0.25 | 91 | 1010.2 |
| 20260505202703 | 48 | 322 | 2.0 | 6.0 | 0.04 | 0.25 | 0.25 | 90 | 1010.4 |
| 20260505201824 | 48 | 322 | 1.0 | 5.0 | 0.04 | 0.25 | 0.25 | 90 | 1010.3 |
| 20260505200003 | 49 | 322 | 1.0 | 5.0 | 0.00 | 0.21 | 0.21 | 89 | 1010.7 |
| 20260505195403 | 49 | 325 | 2.0 | 6.0 | 0.00 | 0.21 | 0.21 | 89 | 1010.3 |
| 20260505194503 | 49 | 327 | 2.0 | 6.0 | 0.00 | 0.21 | 0.21 | 88 | 1010.6 |
| 20260505193603 | 49 | 324 | 1.0 | 6.0 | 0.00 | 0.21 | 0.21 | 88 | 1010.9 |
| 20260505192724 | 49 | 326 | 1.0 | 4.0 | 0.01 | 0.21 | 0.21 | 87 | 1010.8 |
| 20260505191803 | 49 | 323 | 1.0 | 8.0 | 0.02 | 0.21 | 0.21 | 86 | 1010.8 |
| 20260505190903 | 50 | 327 | 2.0 | 9.0 | 0.02 | 0.21 | 0.21 | 85 | 1010.5 |
| 20260505190004 | 50 | 330 | 2.0 | 8.0 | 0.02 | 0.21 | 0.21 | 85 | 1010.5 |
| 20260505185403 | 50 | 323 | 2.0 | 11.0 | 0.02 | 0.21 | 0.21 | 85 | 1010.5 |
| 20260505184503 | 51 | 327 | 2.0 | 8.0 | 0.02 | 0.21 | 0.21 | 86 | 1010.2 |
| 20260505183603 | 51 | 323 | 2.0 | 5.0 | 0.02 | 0.21 | 0.21 | 84 | 1010.4 |
| 20260505182703 | 52 | 326 | 3.0 | 9.0 | 0.01 | 0.20 | 0.20 | 81 | 1010.9 |
| 20260505181824 | 53 | 324 | 2.0 | 8.0 | 0.00 | 0.19 | 0.19 | 79 | 1010.6 |
| 20260505180903 | 53 | 329 | 2.0 | 9.0 | 0.00 | 0.19 | 0.19 | 80 | 1010.4 |
| 20260505180003 | 53 | 321 | 0.0 | 3.0 | 0.00 | 0.20 | 0.19 | 80 | 1010.7 |
| 20260505175403 | 53 | 324 | 0.0 | 1.0 | 0.00 | 0.20 | 0.19 | 80 | 1011.0 |
| 20260505174524 | 53 | 321 | 1.0 | 4.0 | 0.00 | 0.21 | 0.19 | 80 | 1011.0 |
| 20260505173603 | 53 | 323 | 1.0 | 4.0 | 0.00 | 0.22 | 0.19 | 81 | 1011.1 |
| 20260505172703 | 53 | 321 | 2.0 | 6.0 | 0.00 | 0.26 | 0.19 | 80 | 1010.8 |
| 20260505171803 | 53 | 323 | 1.0 | 4.0 | 0.00 | 0.32 | 0.19 | 81 | 1010.7 |
| 20260505170924 | 54 | 325 | 1.0 | 4.0 | 0.00 | 0.35 | 0.19 | 78 | 1010.8 |
| 20260505170003 | 54 | 326 | 0.0 | 5.0 | 0.00 | 0.35 | 0.19 | 76 | 1010.3 |
| 20260505165424 | 55 | 325 | 0.0 | 5.0 | 0.00 | 0.36 | 0.19 | 75 | 1010.1 |
| 20260505164503 | 55 | 0 | 0.0 | 1.0 | 0.00 | 0.38 | 0.19 | 74 | 1010.0 |
| 20260505163603 | 55 | 327 | 0.0 | 3.0 | 0.00 | 0.41 | 0.19 | 72 | 1010.0 |
| 20260505162703 | 55 | 0 | 0.0 | 0.0 | 0.00 | 0.44 | 0.19 | 74 | 1009.8 |
| 20260505161803 | 55 | 322 | 0.0 | 2.0 | 0.00 | 0.44 | 0.19 | 73 | 1009.9 |
| 20260505160924 | 55 | 323 | 0.0 | 2.0 | 0.00 | 0.44 | 0.19 | 70 | 1009.9 |
| 20260505152703 | 54 | 324 | 2.0 | 9.0 | 0.00 | 0.44 | 0.19 | 77 | 1009.6 |
| 20260505151803 | 54 | 326 | 1.0 | 4.0 | 0.00 | 0.44 | 0.19 | 78 | 1009.6 |
| 20260505150903 | 53 | 325 | 2.0 | 8.0 | 0.00 | 0.44 | 0.19 | 79 | 1009.5 |
| 20260505124503 | 49 | 326 | 0.0 | 5.0 | 0.12 | 0.41 | 0.16 | 91 | 1010.1 |
| 20260505123603 | 49 | 324 | 1.0 | 5.0 | 0.11 | 0.40 | 0.15 | 90 | 1010.2 |
| 20260505122703 | 50 | 321 | 1.0 | 6.0 | 0.11 | 0.40 | 0.15 | 90 | 1009.8 |
| 20260505121803 | 50 | 327 | 1.0 | 9.0 | 0.10 | 0.39 | 0.14 | 90 | 1009.7 |
| 20260505120903 | 50 | 324 | 2.0 | 6.0 | 0.12 | 0.39 | 0.14 | 89 | 1009.4 |
| 20260505120004 | 51 | 326 | 3.0 | 10.0 | 0.12 | 0.37 | 0.12 | 88 | 1009.0 |
| 20260505115403 | 52 | 326 | 2.0 | 9.0 | 0.05 | 0.30 | 0.05 | 86 | 1010.0 |
| 20260505114503 | 52 | 326 | 1.0 | 4.0 | 0.04 | 0.29 | 0.04 | 87 | 1009.4 |
| 20260505113603 | 53 | 323 | 1.0 | 8.0 | 0.04 | 0.29 | 0.04 | 86 | 1008.7 |
| 20260505112703 | 53 | 326 | 2.0 | 8.0 | 0.04 | 0.29 | 0.04 | 84 | 1008.4 |
| 20260505111824 | 54 | 323 | 1.0 | 8.0 | 0.04 | 0.29 | 0.04 | 83 | 1008.1 |
| 20260505110903 | 55 | 325 | 2.0 | 6.0 | 0.02 | 0.27 | 0.02 | 81 | 1007.9 |
| 20260505101803 | 58 | 326 | 3.0 | 11.0 | 0.00 | 0.25 | 0.00 | 82 | 1007.4 |
| 20260505100903 | 58 | 326 | 3.0 | 10.0 | 0.00 | 0.25 | 0.00 | 82 | 1007.3 |
| 20260505100003 | 60 | 324 | 2.0 | 6.0 | 0.00 | 0.25 | 0.00 | 84 | 1007.0 |
| 20260505095403 | 60 | 323 | 2.0 | 8.0 | 0.00 | 0.25 | 0.00 | 82 | 1007.1 |
| 20260505094503 | 62 | 330 | 3.0 | 9.0 | 0.00 | 0.25 | 0.00 | 80 | 1006.9 |
| 20260505093603 | 63 | 325 | 2.0 | 8.0 | 0.00 | 0.25 | 0.00 | 79 | 1006.6 |
| 20260505092703 | 64 | 326 | 1.0 | 8.0 | 0.00 | 0.25 | 0.00 | 77 | 1006.5 |
| 20260505091803 | 64 | 322 | 2.0 | 5.0 | 0.00 | 0.25 | 0.00 | 75 | 1006.2 |
| 20260505090903 | 64 | 329 | 0.0 | 2.0 | 0.00 | 0.25 | 0.00 | 74 | 1005.8 |
| 20260505090004 | 64 | 0 | 0.0 | 0.0 | 0.00 | 0.25 | 0.00 | 74 | 1005.6 |
| 20260505085403 | 64 | 132 | 0.0 | 1.0 | 0.00 | 0.25 | 0.00 | 73 | 1005.5 |
| 20260505084503 | 64 | 130 | 0.0 | 1.0 | 0.00 | 0.25 | 0.00 | 74 | 1005.3 |
| 20260505083603 | 64 | 129 | 0.0 | 1.0 | 0.00 | 0.25 | 0.00 | 73 | 1005.3 |
| 20260505082724 | 65 | 129 | 0.0 | 1.0 | 0.00 | 0.25 | 0.00 | 74 | 1005.1 |
| 20260505081803 | 65 | 137 | 1.0 | 3.0 | 0.00 | 0.25 | 0.00 | 72 | 1005.2 |
| 20260505080903 | 65 | 309 | 0.0 | 1.0 | 0.00 | 0.25 | 0.00 | 72 | 1005.1 |
| 20260505080003 | 66 | 0 | 0.0 | 0.0 | 0.00 | 0.25 | 0.00 | 69 | 1005.6 |
| 20260505075424 | 66 | 0 | 0.0 | 1.0 | 0.00 | 0.25 | 0.00 | 67 | 1005.8 |
| 20260505074503 | 66 | 321 | 0.0 | 3.0 | 0.00 | 0.25 | 0.00 | 67 | 1006.0 |
| 20260505073603 | 66 | 317 | 1.0 | 3.0 | 0.00 | 0.25 | 0.00 | 65 | 1006.0 |
| 20260505072703 | 67 | 307 | 0.0 | 1.0 | 0.00 | 0.25 | 0.00 | 65 | 1006.0 |
| 20260505071824 | 67 | 323 | 1.0 | 4.0 | 0.00 | 0.25 | 0.00 | 65 | 1006.0 |
| 20260505070903 | 67 | 310 | 1.0 | 11.0 | 0.00 | 0.25 | 0.00 | 64 | 1005.9 |
| 20260505070003 | 68 | 328 | 3.0 | 8.0 | 0.00 | 0.25 | 0.00 | 64 | 1006.1 |
| 20260505065424 | 68 | 328 | 4.0 | 13.0 | 0.00 | 0.25 | 0.00 | 63 | 1006.4 |
| 20260505064503 | 70 | 330 | 4.0 | 11.0 | 0.00 | 0.25 | 0.00 | 60 | 1006.3 |
| 20260505063603 | 71 | 310 | 2.0 | 8.0 | 0.00 | 0.25 | 0.00 | 61 | 1005.2 |
| 20260505062724 | 71 | 169 | 2.0 | 11.0 | 0.00 | 0.25 | 0.00 | 60 | 1004.5 |
| 20260505061803 | 72 | 177 | 3.0 | 12.0 | 0.00 | 0.25 | 0.00 | 60 | 1004.5 |
| 20260505060903 | 72 | 182 | 2.0 | 9.0 | 0.00 | 0.25 | 0.00 | 60 | 1004.4 |
| 20260505060004 | 72 | 185 | 2.0 | 9.0 | 0.00 | 0.25 | 0.00 | 60 | 1004.3 |
| 20260505055403 | 72 | 183 | 2.0 | 9.0 | 0.00 | 0.25 | 0.00 | 60 | 1004.2 |
| 20260505054524 | 72 | 216 | 2.0 | 6.0 | 0.00 | 0.25 | 0.00 | 60 | 1004.2 |
| 20260505053603 | 72 | 181 | 3.0 | 8.0 | 0.00 | 0.25 | 0.00 | 59 | 1004.0 |
| 20260505052703 | 72 | 162 | 2.0 | 9.0 | 0.00 | 0.25 | 0.00 | 59 | 1003.8 |
| 20260505051803 | 72 | 163 | 3.0 | 9.0 | 0.00 | 0.25 | 0.00 | 59 | 1003.6 |
| 20260505050903 | 72 | 143 | 2.0 | 8.0 | 0.00 | 0.25 | 0.00 | 59 | 1003.4 |
| 20260505040903 | 72 | 140 | 2.0 | 7.0 | 0.00 | 0.25 | 0.25 | 58 | 1003.2 |
| 20260505040004 | 73 | 143 | 1.0 | 7.0 | 0.00 | 0.25 | 0.25 | 58 | 1003.4 |
| 20260505035424 | 73 | 143 | 2.0 | 6.0 | 0.00 | 0.25 | 0.25 | 58 | 1003.5 |
| 20260505034503 | 73 | 142 | 2.0 | 5.0 | 0.00 | 0.25 | 0.25 | 57 | 1003.7 |
| 20260505033603 | 74 | 139 | 2.0 | 6.0 | 0.00 | 0.25 | 0.25 | 56 | 1003.7 |
| 20260505032703 | 74 | 143 | 2.0 | 5.0 | 0.00 | 0.25 | 0.25 | 56 | 1003.6 |
| 20260505031803 | 74 | 146 | 2.0 | 6.0 | 0.00 | 0.25 | 0.25 | 56 | 1003.6 |
| 20260505030924 | 75 | 141 | 2.0 | 5.0 | 0.00 | 0.25 | 0.25 | 55 | 1003.6 |
| 20260505030004 | 75 | 143 | 2.0 | 5.0 | 0.00 | 0.25 | 0.25 | 55 | 1003.6 |
| 20260505025403 | 75 | 142 | 2.0 | 5.0 | 0.00 | 0.25 | 0.25 | 55 | 1003.5 |
| 20260505024524 | 75 | 140 | 2.0 | 5.0 | 0.00 | 0.25 | 0.25 | 55 | 1003.3 |
| 20260505023603 | 75 | 139 | 1.0 | 6.0 | 0.00 | 0.25 | 0.25 | 55 | 1003.3 |
| 20260505022703 | 75 | 140 | 1.0 | 4.0 | 0.00 | 0.25 | 0.25 | 55 | 1003.0 |
| 20260505021803 | 75 | 137 | 1.0 | 5.0 | 0.00 | 0.25 | 0.25 | 55 | 1002.8 |
| 20260505020903 | 75 | 137 | 1.0 | 5.0 | 0.00 | 0.25 | 0.25 | 55 | 1002.7 |
| 20260505020003 | 75 | 142 | 1.0 | 4.0 | 0.00 | 0.25 | 0.25 | 55 | 1002.5 |
| 20260505015403 | 75 | 135 | 1.0 | 3.0 | 0.00 | 0.25 | 0.25 | 55 | 1002.4 |
| 20260505014503 | 75 | 136 | 1.0 | 3.0 | 0.00 | 0.25 | 0.25 | 54 | 1002.3 |
| 20260505013603 | 76 | 141 | 1.0 | 3.0 | 0.00 | 0.25 | 0.25 | 53 | 1002.2 |
| 20260505012703 | 76 | 144 | 2.0 | 7.0 | 0.00 | 0.25 | 0.25 | 53 | 1002.1 |
| 20260505011824 | 76 | 138 | 2.0 | 5.0 | 0.00 | 0.25 | 0.25 | 52 | 1002.1 |
| 20260505010903 | 77 | 145 | 2.0 | 5.0 | 0.00 | 0.25 | 0.25 | 52 | 1002.0 |
| 20260505010004 | 77 | 140 | 2.0 | 4.0 | 0.00 | 0.25 | 0.25 | 52 | 1002.0 |
| 20260505005424 | 77 | 136 | 1.0 | 4.0 | 0.00 | 0.25 | 0.25 | 51 | 1001.9 |
| 20260505004503 | 77 | 138 | 1.0 | 4.0 | 0.00 | 0.25 | 0.25 | 51 | 1001.7 |
| 20260505003603 | 78 | 133 | 2.0 | 7.0 | 0.00 | 0.25 | 0.25 | 50 | 1001.6 |
| 20260505002703 | 78 | 155 | 2.0 | 7.0 | 0.00 | 0.25 | 0.25 | 49 | 1001.6 |
| 20260505001803 | 79 | 158 | 1.0 | 11.0 | 0.00 | 0.25 | 0.25 | 49 | 1001.6 |
| 20260505000903 | 79 | 162 | 1.0 | 4.0 | 0.00 | 0.25 | 0.25 | 49 | 1001.6 |
| 20260505000004 | 79 | 153 | 2.0 | 13.0 | 0.00 | 0.25 | 0.25 | 48 | 1001.6 |
| 20260504235424 | 80 | 138 | 2.0 | 13.0 | 0.00 | 0.25 | 0.25 | 48 | 1001.6 |
| 20260504234503 | 80 | 167 | 2.0 | 10.0 | 0.00 | 0.25 | 0.25 | 47 | 1001.6 |
| 20260504233603 | 80 | 145 | 2.0 | 11.0 | 0.00 | 0.25 | 0.25 | 47 | 1001.6 |
| 20260504232703 | 80 | 144 | 2.0 | 13.0 | 0.00 | 0.25 | 0.25 | 48 | 1001.7 |
| 20260504231803 | 80 | 167 | 1.0 | 7.0 | 0.00 | 0.25 | 0.25 | 47 | 1001.9 |
| 20260504230903 | 80 | 177 | 2.0 | 10.0 | 0.00 | 0.25 | 0.25 | 48 | 1001.9 |